• In Uzbekistan
  • List of Countries
  • For 7 days
  • Water Temperature
  • Satellite Maps
  • Weather Map
  • Weather Widgets
  • user-avatar
    Login

    Hourly Weather Abovyan

    Today, 23 June, Friday

    Time Temperature Precipitation Wind Pressure Humidity
    00:00 +14°C° 0.1 mm 2 mps 670 mmHg 84%
    01:00 +14°C° 0 mm 2 mps 670 mmHg 85%
    02:00 +13°C° 0 mm 1 mps 670 mmHg 85%
    03:00 +13°C° 0 mm 1 mps 670 mmHg 87%
    04:00 +14°C° 0 mm 1 mps 670 mmHg 83%
    05:00 +15°C° 0 mm 1 mps 671 mmHg 80%
    06:00 +16°C° 0 mm 1 mps 671 mmHg 76%
    07:00 +19°C° 0 mm 1 mps 671 mmHg 67%
    08:00 +21°C° 0 mm 1 mps 672 mmHg 58%
    09:00 +23°C° 0 mm 1 mps 672 mmHg 50%
    10:00 +24°C° 0.1 mm 1 mps 672 mmHg 46%
    11:00 +26°C° 0.1 mm 1 mps 672 mmHg 43%
    12:00 +27°C° 0.1 mm 1 mps 672 mmHg 40%
    13:00 +27°C° 0.2 mm 1 mps 672 mmHg 40%
    14:00 +27°C° 0.2 mm 1 mps 672 mmHg 40%
    15:00 +28°C° 0.2 mm 1 mps 672 mmHg 39%
    16:00 +27°C° 0.5 mm 1 mps 671 mmHg 43%
    17:00 +26°C° 0.5 mm 1 mps 671 mmHg 47%
    18:00 +25°C° 0.5 mm 2 mps 671 mmHg 51%
    19:00 +23°C° 0.4 mm 2 mps 671 mmHg 58%
    20:00 +20°C° 0.4 mm 2 mps 671 mmHg 65%
    21:00 +18°C° 0.4 mm 2 mps 671 mmHg 73%
    22:00 +17°C° 0.1 mm 2 mps 671 mmHg 75%
    23:00 +16°C° 0.1 mm 2 mps 671 mmHg 77%

    Tomorrow, 24 June, Saturday

    Time Temperature Precipitation Wind Pressure Humidity
    00:00 +15°C° 0.1 mm 2 mps 671 mmHg 80%
    01:00 +15°C° 0 mm 2 mps 671 mmHg 81%
    02:00 +14°C° 0 mm 1 mps 671 mmHg 82%
    03:00 +14°C° 0 mm 1 mps 671 mmHg 84%
    04:00 +15°C° 0 mm 1 mps 671 mmHg 81%
    05:00 +16°C° 0 mm 1 mps 672 mmHg 78%
    06:00 +18°C° 0 mm 1 mps 672 mmHg 75%
    07:00 +20°C° 0 mm 1 mps 672 mmHg 65%
    08:00 +23°C° 0 mm 1 mps 672 mmHg 55%
    09:00 +25°C° 0 mm 1 mps 673 mmHg 45%
    10:00 +27°C° 0 mm 1 mps 673 mmHg 40%
    11:00 +28°C° 0 mm 1 mps 672 mmHg 36%
    12:00 +30°C° 0 mm 1 mps 672 mmHg 31%
    13:00 +30°C° 0 mm 1 mps 672 mmHg 30%
    14:00 +30°C° 0 mm 1 mps 672 mmHg 29%
    15:00 +31°C° 0 mm 1 mps 671 mmHg 27%
    16:00 +30°C° 0 mm 1 mps 671 mmHg 31%
    17:00 +29°C° 0 mm 1 mps 671 mmHg 34%
    18:00 +28°C° 0 mm 1 mps 671 mmHg 37%
    19:00 +25°C° 0 mm 1 mps 671 mmHg 45%
    20:00 +23°C° 0 mm 1 mps 670 mmHg 54%
    21:00 +19°C° 0 mm 2 mps 670 mmHg 62%
    22:00 +18°C° 0 mm 2 mps 670 mmHg 67%
    23:00 +18°C° 0 mm 2 mps 670 mmHg 72%

    Day after tomorrow, 25 June, Sunday

    Time Temperature Precipitation Wind Pressure Humidity
    00:00 +17°C° 0 mm 2 mps 670 mmHg 78%
    01:00 +17°C° 0.1 mm 2 mps 670 mmHg 80%
    02:00 +16°C° 0.1 mm 1 mps 670 mmHg 82%
    03:00 +16°C° 0.1 mm 1 mps 670 mmHg 84%
    04:00 +18°C° 0 mm 1 mps 671 mmHg 80%
    05:00 +19°C° 0 mm 1 mps 671 mmHg 76%
    06:00 +20°C° 0 mm 1 mps 671 mmHg 72%
    07:00 +22°C° 0 mm 1 mps 672 mmHg 60%
    08:00 +25°C° 0 mm 1 mps 672 mmHg 48%
    09:00 +27°C° 0 mm 1 mps 673 mmHg 36%
    10:00 +28°C° 0 mm 1 mps 673 mmHg 32%
    11:00 +30°C° 0 mm 1 mps 673 mmHg 28%
    12:00 +31°C° 0 mm 2 mps 673 mmHg 24%
    13:00 +32°C° 0 mm 2 mps 672 mmHg 24%
    14:00 +32°C° 0 mm 2 mps 672 mmHg 23%
    15:00 +32°C° 0 mm 1 mps 672 mmHg 23%
    16:00 +31°C° 0 mm 1 mps 672 mmHg 27%
    17:00 +30°C° 0 mm 1 mps 671 mmHg 30%
    18:00 +29°C° 0 mm 1 mps 671 mmHg 34%
    19:00 +27°C° 0 mm 2 mps 671 mmHg 44%
    20:00 +24°C° 0 mm 2 mps 671 mmHg 54%
    21:00 +20°C° 0 mm 2 mps 672 mmHg 64%
    22:00 +20°C° 0.1 mm 2 mps 672 mmHg 67%
    23:00 +19°C° 0.1 mm 2 mps 672 mmHg 71%

    26 June, Monday

    Time Temperature Precipitation Wind Pressure Humidity
    00:00 +18°C° 0.1 mm 2 mps 672 mmHg 74%
    01:00 +17°C° 0 mm 2 mps 672 mmHg 75%
    02:00 +17°C° 0 mm 2 mps 672 mmHg 75%
    03:00 +16°C° 0 mm 1 mps 672 mmHg 76%
    04:00 +18°C° 0 mm 1 mps 672 mmHg 72%
    05:00 +19°C° 0 mm 1 mps 673 mmHg 69%
    06:00 +20°C° 0 mm 1 mps 673 mmHg 65%
    07:00 +23°C° 0 mm 1 mps 673 mmHg 56%
    08:00 +25°C° 0 mm 1 mps 674 mmHg 47%
    09:00 +28°C° 0 mm 1 mps 674 mmHg 38%
    10:00 +29°C° 0 mm 1 mps 674 mmHg 35%
    11:00 +31°C° 0 mm 2 mps 674 mmHg 31%
    12:00 +32°C° 0 mm 2 mps 674 mmHg 27%
    13:00 +32°C° 0 mm 2 mps 674 mmHg 27%
    14:00 +34°C° 0 mm 2 mps 673 mmHg 26%
    15:00 +34°C° 0 mm 2 mps 673 mmHg 25%
    16:00 +32°C° 0 mm 2 mps 673 mmHg 29%
    17:00 +31°C° 0 mm 1 mps 673 mmHg 33%
    18:00 +31°C° 0 mm 1 mps 672 mmHg 37%
    19:00 +28°C° 0 mm 2 mps 672 mmHg 46%
    20:00 +25°C° 0 mm 2 mps 672 mmHg 56%
    21:00 +21°C° 0 mm 2 mps 672 mmHg 65%
    22:00 +21°C° 0.1 mm 2 mps 672 mmHg 69%
    23:00 +20°C° 0.1 mm 2 mps 672 mmHg 73%

    27 June, Tuesday

    Time Temperature Precipitation Wind Pressure Humidity
    00:00 +19°C° 0.1 mm 2 mps 672 mmHg 76%
    01:00 +19°C° 0 mm 2 mps 672 mmHg 77%
    02:00 +19°C° 0 mm 1 mps 672 mmHg 78%
    03:00 +19°C° 0 mm 1 mps 672 mmHg 79%
    04:00 +20°C° 0 mm 1 mps 672 mmHg 75%
    05:00 +21°C° 0 mm 1 mps 672 mmHg 72%
    06:00 +22°C° 0 mm 1 mps 673 mmHg 68%
    07:00 +25°C° 0 mm 1 mps 673 mmHg 57%
    08:00 +28°C° 0 mm 1 mps 673 mmHg 47%
    09:00 +30°C° 0 mm 1 mps 674 mmHg 36%
    10:00 +32°C° 0 mm 1 mps 674 mmHg 32%
    11:00 +33°C° 0 mm 1 mps 674 mmHg 29%
    12:00 +35°C° 0 mm 1 mps 673 mmHg 25%
    13:00 +35°C° 0 mm 1 mps 673 mmHg 24%
    14:00 +36°C° 0 mm 1 mps 673 mmHg 23%
    15:00 +36°C° 0 mm 1 mps 672 mmHg 22%
    16:00 +35°C° 0.1 mm 1 mps 672 mmHg 27%
    17:00 +34°C° 0.1 mm 1 mps 672 mmHg 32%
    18:00 +32°C° 0.1 mm 1 mps 672 mmHg 36%
    19:00 +30°C° 0.1 mm 2 mps 672 mmHg 45%
    20:00 +27°C° 0.1 mm 2 mps 672 mmHg 54%
    21:00 +24°C° 0.1 mm 3 mps 672 mmHg 63%
    22:00 +24°C° 0 mm 2 mps 672 mmHg 65%
    23:00 +23°C° 0 mm 2 mps 672 mmHg 67%

    28 June, Wednesday

    Time Temperature Precipitation Wind Pressure Humidity
    00:00 +21°C° 0 mm 2 mps 672 mmHg 69%
    01:00 +21°C° 0 mm 2 mps 672 mmHg 70%
    02:00 +20°C° 0 mm 2 mps 671 mmHg 70%
    03:00 +20°C° 0 mm 2 mps 671 mmHg 71%
    04:00 +20°C° 0 mm 2 mps 672 mmHg 70%
    05:00 +21°C° 0 mm 2 mps 672 mmHg 68%
    06:00 +23°C° 0 mm 1 mps 672 mmHg 66%
    07:00 +25°C° 0 mm 1 mps 672 mmHg 58%
    08:00 +28°C° 0 mm 1 mps 673 mmHg 50%
    09:00 +30°C° 0 mm 1 mps 673 mmHg 41%
    10:00 +32°C° 0.1 mm 1 mps 673 mmHg 38%
    11:00 +33°C° 0.1 mm 1 mps 672 mmHg 34%
    12:00 +34°C° 0.1 mm 1 mps 672 mmHg 30%
    13:00 +35°C° 0.2 mm 1 mps 672 mmHg 31%
    14:00 +35°C° 0.2 mm 1 mps 671 mmHg 31%
    15:00 +35°C° 0.2 mm 1 mps 671 mmHg 32%
    16:00 +35°C° 0.3 mm 2 mps 671 mmHg 37%
    17:00 +33°C° 0.3 mm 3 mps 670 mmHg 42%
    18:00 +31°C° 0.3 mm 3 mps 670 mmHg 47%
    19:00 +28°C° 0.3 mm 3 mps 670 mmHg 54%
    20:00 +26°C° 0.3 mm 3 mps 670 mmHg 61%
    21:00 +24°C° 0.3 mm 3 mps 670 mmHg 68%
    22:00 +23°C° 0.1 mm 2 mps 670 mmHg 70%
    23:00 +21°C° 0.1 mm 2 mps 670 mmHg 71%
    Show more